Tracking 35331 objects as of 14-Sep-2026
HD Live streaming from Space Station
objects crossing your sky now

SL-12 R/B(AUX MOTOR)


SL-12 R/B(AUX MOTOR) is no longer on orbit


NORAD ID: 23272
Int'l Code: 1994-060F
Launch date: September 21, 1994
Source: Commonwealth of Independent States (former USSR) (CIS)
Launch site: TYURATAM MISSILE AND SPACE COMPLEX (TTMTR)
Decay date: 1995-05-19

Note: This is a ROCKET BODY
Your satellite tracking list
Your tracking list is empty




NASA's NSSDC Master Catalog

Two Line Element Set (TLE):
1 23272U 94060  F 95138.99976593  .99587286 +32622-4 +18285-2 0  9997
2 23272 046.7238 170.4349 1079469 104.1485 269.3871 14.04241028007127
Source of the keplerian elements: AFSPC